www.pogodaiklimat.ru

Погода и климат >> Архив погоды >> Россия >> Приморский край >> Мельничное


ПОГОДА в Мельничном

  • Прогноз погоды в Мельничном
  • Монитор погоды в Мельничном

АРХИВ ПОГОДЫ в Мельничном

Время (UTC), дата Ветер
(напр.,м/с)
 
Видим.   Явления Облачность Т
(С)
Тd
(С)
f
(%)
Тe
(С)
Тes
(С)
Комфортность P
(гПа)
Po
(гПа)
Тmin
(С)
Tmax
(С)
R
(мм)
R24
(мм)
S
(см)
09 10.07 Ю 1 20 км 1/0
[Ci fib]
+28.2 +14.4 43 +30 +32 жарко 1010.3 973.3 +29.6
12 10.07 штиль 0 20 км ясно +18.2 +14.1 77 +18 +18 1014.4 976.0
15 10.07 В 1 20 км ясно +14.5 +13.4 93 +15 +15 1014.9 976.0
18 10.07 В 1 20 км ясно +13.0 +12.1 94 +13 +13 1016.4 977.3
21 10.07 В 1 20 км 10/10 300 м
[St]
+12.0 +11.2 95 +12 +12 1016.6 977.3 +11.4
00 11.07 В 1 20 км 9 баллов +17.1 +13.6 80 +18 +19 1014.5 976.0
03 11.07 В 1 20 км 10/0
[Ac As]
+25.2 +12.7 46 +27 +27 жарко 1010.7 973.3
06 11.07 ЮВ 1 20 км 10 баллов +25.8 +15.2 52 +29 +29 душно 1009.2 972.0
09 11.07 Ю 1 20 км 9/0
[Ac trans]
+24.8 +13.0 48 +27 +27 жарко 1008.0 970.7 +28.1
12 11.07 З 1 20 км 7 баллов +17.3 +13.0 76 +18 +18 1009.0 970.7
15 11.07 штиль 0 20 км 6/0
[Ac trans Ci]
+13.1 +12.2 94 +13 +13 1009.6 970.7
18 11.07 штиль 0 20 км 7 баллов +12.0 +11.2 95 +11 +11 1008.3 969.3
21 11.07 В 1 20 км 10/10 300 м
[St]
+12.6 +11.8 95 +13 +13 1008.2 969.3 +11.0
00 12.07 В 1 20 км 10 баллов +20.9 +13.8 64 +25 +25 комфорт 1005.7 968.0
03 12.07 ЮВ 1 10 км слаб. дождь 10/0
[As op]
+21.1 +14.7 67 +24 +24 комфорт 1005.6 968.0
06 12.07 В 3 20 км 10 баллов +23.2 +13.6 55 +27 +27 душно 1002.6 965.3
09 12.07 Ю 1 20 км 10/0
[Ac As]
+20.8 +13.2 62 +24 +24 комфорт 1002.9 965.3 +23.2 0.0
12 12.07 В 1 20 км 10 баллов +17.1 +14.4 84 +18 +18 1004.8 966.7
15 12.07 ЮВ 1 20 км 10/0
[Ac As]
+17.4 +11.4 68 +18 +18 1003.4 965.3
18 12.07 штиль 0 20 км 10 баллов +15.8 +13.1 84 +16 +16 1003.6 965.3
21 12.07 штиль 0 10 км слаб. ливневой дождь 10/5 600 м
[Cb cap Ac trans]
+15.8 +14.5 92 +16 +16 1005.0 966.7 +15.6 0.0
00 13.07 В 1 20 км 10 баллов +18.2 +13.7 75 +20 +20 1004.7 966.7
03 13.07 ЮВ 1 50 км 10/10 600 м
[Sc]
+19.7 +13.8 69 +23 +23 комфорт 1004.5 966.7
06 13.07 Ю 1 50 км 10 баллов +19.7 +14.1 70 +23 +23 комфорт 1004.5 966.7
09 13.07 В 1 20 км 10/0
[Ac cast]
+20.5 +14.2 67 +24 +25 комфорт 1002.9 965.3 +20.7 0.0
15 13.07 штиль 0 20 км 10/5 600 м
[Sc Ac As]
+13.4 +12.6 95 +13 +13 1006.0 967.3
18 13.07 штиль 0 20 км 10 баллов +14.0 +13.2 95 +14 +14 1006.6 968.0
21 13.07 штиль 0 20 км 10/3 300 м
[St Ac As]
+14.5 +13.9 96 +14 +14 1007.9 969.3 +12.1
00 14.07 ЮВ 1 20 км 10 баллов +19.8 +13.9 69 +23 +23 комфорт 1005.8 968.0
03 14.07 ЮВ 1 50 км 10/10 600 м
[Sc]
+22.7 +14.0 58 +26 +26 жарко 1005.5 968.0
06 14.07 В 2 50 км 10 баллов +21.5 +13.9 62 +24 +24 комфорт 1005.6 968.0
09 14.07 В 1 50 км в посл. час ливневой дождь 10/10 600 м
[Cb cap]
+18.6 +15.3 81 +21 +21 комфорт 1007.3 969.3 +23.3 0.0
12 14.07 штиль 0 50 км 10 баллов +17.4 +14.1 81 +17 +17 1008.9 970.7
15 14.07 штиль 0 50 км 10/10 600 м
[Sc]
+16.8 +13.5 81 +17 +17 1010.4 972.0
18 14.07 штиль 0 50 км 10 баллов +16.5 +13.0 80 +16 +16 1010.4 972.0
21 14.07 штиль 0 20 км 10 баллов +15.9 +13.7 87 +16 +16 1011.9 973.3 +15.6
00 15.07 ЮВ 1 20 км в посл. час ливневой дождь 10 баллов +18.4 +14.3 77 +20 +20 1013.0 974.7
03 15.07 ЮВ 1 50 км 10 баллов +21.1 +13.8 63 +24 +24 комфорт 1012.6 974.7
06 15.07 Ю 1 50 км 10 баллов +21.4 +14.8 66 +24 +24 комфорт 1012.6 974.7
09 15.07 штиль 0 50 км 2 балла +19.3 +15.2 77 +21 +22 комфорт 1012.8 974.7 +23.0 0.0
12 15.07 В 2 50 км 10 баллов +18.1 +13.8 76 +19 +19 1014.4 976.0
15 15.07 В 1 50 км 10 баллов +15.9 +12.6 81 +17 +17 1016.0 977.3
18 15.07 штиль 0 50 км 10 баллов +15.0 +12.7 86 +15 +15 1016.2 977.3
21 15.07 В 1 20 км 10 баллов +14.6 +12.6 88 +15 +15 1016.2 977.3 +13.7
00 16.07 В 2 20 км 10 баллов +19.0 +13.0 68 +21 +21 комфорт 1015.6 977.3
03 16.07 СВ 2 20 км 7 баллов +24.5 +13.7 51 +27 +32 жарко 1013.5 976.0
06 16.07 ЮЗ 1 20 км 10 баллов +26.3 +14.1 47 +29 +29 жарко 1010.5 973.3
09 16.07 штиль 0 20 км 10 баллов +22.7 +16.5 68 +27 +27 душно 1010.9 973.3 +26.9
12 16.07 штиль 0 20 км 9 баллов +18.3 +16.6 90 +19 +19 1012.9 974.7
15 16.07 В 1 20 км 7 баллов +15.2 +14.2 94 +16 +16 1013.4 974.7
18 16.07 штиль 0 20 км 7 баллов +14.8 +13.8 94 +14 +14 1013.5 974.7
21 16.07 В 1 10 км 10 баллов +15.0 +14.4 96 +15 +15 1013.4 974.7 +14.2
00 17.07 В 2 50 км 4 балла +21.2 +14.6 66 +24 +31 комфорт 1011.1 973.3
03 17.07 В 2 20 км 10 баллов +25.3 +14.7 52 +28 +28 жарко 1009.3 972.0

 

Местоположение метеостанции Мельничное (Приморский край, Россия): широта 45.45 долгота 135.50 высота над уровнем моря 332 м.

В архиве по умолчанию представлена погода в Мельничном за последнюю неделю. Архивные данные за месяц целиком и за предыдущие месяцы, начиная с января 2011 года, Вы можете получить, выбрав интересующий диапазон дат из раскрывающегося списка и нажав кнопку "Ввод!".


*Определитесь, кто Вы:
робот инопланетянин человек

Внимание! Время в таблицах - всемирное. Для получения местного времени необходимо прибавить поправку, которая равна 10 ч.

Смотрите также архив погоды в соседних городах и на ближайших метеорологических станциях:

Погода в Глубинном (Приморский край, Россия) (71 км)
Погода в Тернее (Приморский край, Россия) (100 км)
Погода в Малиново (Приморский край, Россия) (102 км)
Погода в Красном Яре (Приморский край, Россия) (121 км)
Погода в Рудной Пристани (Приморский край, Россия) (122 км)
Погода в Малой Кеме (Приморский край, Россия) (125 км)
Погода в Богополе (Приморский край, Россия) (134 км)
Погода в Кавалерово (Приморский край, Россия) (139 км)
Погода в Дальнереченске (Приморский край, Россия) (148 км)
Погода в Кировском (Приморский край, Россия) (161 км)

Пояснения к столбцам:

Ветер - указаны скорость ветра в м/с - средняя за 10 мин, порывы в срок и между сроками (в фигурных скобках) и направление, откуда дует ветер: С - северный, СВ - северо-восточный, В - восточный, ЮВ - юго-восточный, Ю - южный, ЮЗ - юго-западный, З - западный, СЗ - северо-западный.
Видимость - горизонтальная дальность видимости в метрах или километрах. При видимости от 1 до 10 км при отсутствии осадков обычно наблюдается дымка, при ухудшении видимости до 1 км и менее - туман. В сухую погоду видимость может ухудшаться дымом, пылью или мглою.
Явления - указаны атмосферные явления, наблюдавшиеся в срок или в последний час перед сроком; фигурными скобками обозначены явления, наблюдавшиеся между сроками (за 1-3 часа до срока); квадратными скобками обозначены град или гололедные отложения с указанием их диаметра в мм.
Облачность - указаны через наклонную черту общая и нижняя облачность в баллах и высота нижней границы облаков в метрах; квадратными скобками обозначены формы облаков: Ci - перистые, Cs - перисто-слоистые, Cc - перисто-кучевые, Ac - высококучевые, As - высокослоистые, Sc - слоисто-кучевые, Ns - слоисто-дождевые, Cu - кучевые, Cb - кучево-дождевые. Подробнее классификацию облаков см. в Атласе облаков (PDF).
T - Температура воздуха - температура, измеренная на высоте 2 м над землей.
Td - Температура точки росы - температура, при понижении до которой содержащийся в воздухе водяной пар достигнет насыщения.
f - Относительная влажность воздуха - влажноcть воздуха, измеренная на высоте 2 м над землей.
Te - Эффективная температура - температура, которую ощущает одетый по сезону человек в тени. Характеристика душности погоды. При расчете учитывается влияние влажности воздуха и скорости ветра на теплоощущения человека.
Tes - Эффективная температура на солнце - температура, которую ощущает человек, с поправкой на солнечный нагрев. Характеристика знойности погоды. Зависит от высоты солнца над горизонтом, облачности и скорости ветра. Ночью, в пасмурную погоду, а также при ветре 12 м/с и более поправка равна нулю.
P - Атмосферное давление - приведенное к уровню моря атмосферное давление.
Po - Атмосферное давление - измеренное на уровне метеостанции атмосферное давление.
Tmin - Минимальная температура - минимум температуры воздуха на высоте 2 м над землей.
Tmax - Максимальная температура - максимум температуры воздуха на высоте 2 м над землей.
R - Количество осадков - Количество выпавших осадков за период времени, мм. При наведении курсора мыши на число - период времени, за который выпало указанное количество осадков.
R24 - Количество осадков - Количество выпавших осадков за 24 часа, мм.
S - Снежный покров - Высота снежного покрова, см. При наведении курсора мыши на число - состояние снежного покрова и степень покрытия местности в баллах.